contact:dominique.lefevre@mio.osupytheas.fr, maurice.libes@osupytheas.fr, didier.mallarino@osupytheas.fr
Project:EMSO http://www.emso-fr.org/EMSO-France
Depth: 2436.0 m
Title:EMSO Ligure Ouest : Data MII capteur OXYGEN
DateTime,Latitude,Longitude,Optode-Type,Optode_Serial,Oxygen,Saturation_Oxygen,Temperature
DateTime,Latitude,Longitude,Optode-Type,Optode_Serial,µmol.l-1,%,degC
2019-07-07T00:02:09,42.805,6.029,4330,1995,192.630,58.913,13.291
2019-07-07T00:05:09,42.805,6.029,4330,1995,192.556,58.891,13.291
2019-07-07T00:08:09,42.805,6.029,4330,1995,192.573,58.896,13.291
2019-07-07T00:11:09,42.805,6.029,4330,1995,192.452,58.860,13.292
2019-07-07T00:14:09,42.805,6.029,4330,1995,192.397,58.842,13.291
2019-07-07T00:17:09,42.805,6.029,4330,1995,192.464,58.862,13.291
2019-07-07T00:20:09,42.805,6.029,4330,1995,192.430,58.852,13.291
2019-07-07T00:23:09,42.805,6.029,4330,1995,192.471,58.863,13.290
2019-07-07T00:26:09,42.805,6.029,4330,1995,192.525,58.880,13.290
2019-07-07T00:29:09,42.805,6.029,4330,1995,192.604,58.904,13.290
2019-07-07T00:32:09,42.805,6.029,4330,1995,192.546,58.886,13.290
2019-07-07T00:35:09,42.805,6.029,4330,1995,192.542,58.885,13.290
2019-07-07T00:38:09,42.805,6.029,4330,1995,192.492,58.870,13.291
2019-07-07T00:41:09,42.805,6.029,4330,1995,192.473,58.864,13.291
2019-07-07T00:44:09,42.805,6.029,4330,1995,192.399,58.843,13.291
2019-07-07T00:47:09,42.805,6.029,4330,1995,192.257,58.799,13.291
2019-07-07T00:50:09,42.805,6.029,4330,1995,192.280,58.806,13.291
2019-07-07T00:53:09,42.805,6.029,4330,1995,192.354,58.828,13.291
2019-07-07T00:56:09,42.805,6.029,4330,1995,192.320,58.818,13.291
2019-07-07T00:59:09,42.805,6.029,4330,1995,192.283,58.807,13.291
2019-07-07T01:02:09,42.805,6.029,4330,1995,192.323,58.820,13.292
2019-07-07T01:05:09,42.805,6.029,4330,1995,192.298,58.812,13.291
2019-07-07T01:11:09,42.805,6.029,4330,1995,192.338,58.820,13.288
2019-07-07T01:14:09,42.805,6.029,4330,1995,192.401,58.841,13.289
2019-07-07T01:17:09,42.805,6.029,4330,1995,192.492,58.870,13.291
2019-07-07T01:20:09,42.805,6.029,4330,1995,192.483,58.867,13.291
2019-07-07T01:23:09,42.805,6.029,4330,1995,192.546,58.886,13.290
2019-07-07T01:26:09,42.805,6.029,4330,1995,192.509,58.875,13.290
2019-07-07T01:29:09,42.805,6.029,4330,1995,192.411,58.845,13.290
2019-07-07T01:32:09,42.805,6.029,4330,1995,192.341,58.823,13.290
2019-07-07T01:35:09,42.805,6.029,4330,1995,192.439,58.853,13.290
2019-07-07T01:38:09,42.805,6.029,4330,1995,192.451,58.857,13.290
2019-07-07T01:41:09,42.805,6.029,4330,1995,192.464,58.862,13.291
2019-07-07T01:44:09,42.805,6.029,4330,1995,192.355,58.828,13.290
2019-07-07T01:47:09,42.805,6.029,4330,1995,192.362,58.830,13.290
2019-07-07T01:50:09,42.805,6.029,4330,1995,192.465,58.862,13.291
2019-07-07T01:53:09,42.805,6.029,4330,1995,192.441,58.854,13.291
2019-07-07T01:56:09,42.805,6.029,4330,1995,192.496,58.872,13.291
2019-07-07T01:59:09,42.805,6.029,4330,1995,192.425,58.851,13.291
2019-07-07T02:02:09,42.805,6.029,4330,1995,192.423,58.850,13.291
2019-07-07T02:05:09,42.805,6.029,4330,1995,192.423,58.850,13.291
2019-07-07T02:08:09,42.805,6.029,4330,1995,192.406,58.845,13.292
2019-07-07T02:11:09,42.805,6.029,4330,1995,192.373,58.836,13.293
2019-07-07T02:14:09,42.805,6.029,4330,1995,192.319,58.819,13.292
2019-07-07T02:17:09,42.805,6.029,4330,1995,192.271,58.805,13.293
2019-07-07T02:20:09,42.805,6.029,4330,1995,192.356,58.831,13.292
2019-07-07T02:23:09,42.805,6.029,4330,1995,192.334,58.824,13.292
2019-07-07T02:26:09,42.805,6.029,4330,1995,192.466,58.864,13.292
2019-07-07T02:29:09,42.805,6.029,4330,1995,192.446,58.858,13.292
2019-07-07T02:32:09,42.805,6.029,4330,1995,192.487,58.871,13.292
2019-07-07T02:35:09,42.805,6.029,4330,1995,192.498,58.875,13.293
2019-07-07T02:38:09,42.805,6.029,4330,1995,192.448,58.860,13.293
2019-07-07T02:41:09,42.805,6.029,4330,1995,192.348,58.829,13.293
2019-07-07T02:44:09,42.805,6.029,4330,1995,192.433,58.855,13.293
2019-07-07T02:47:09,42.805,6.029,4330,1995,192.432,58.855,13.293
2019-07-07T02:50:09,42.805,6.029,4330,1995,192.357,58.832,13.293
2019-07-07T02:53:09,42.805,6.029,4330,1995,192.289,58.811,13.293
2019-07-07T02:56:09,42.805,6.029,4330,1995,192.350,58.830,13.293
2019-07-07T02:59:09,42.805,6.029,4330,1995,192.364,58.834,13.293
2019-07-07T03:02:09,42.805,6.029,4330,1995,192.397,58.845,13.293
2019-07-07T03:05:09,42.805,6.029,4330,1995,192.249,58.799,13.293
2019-07-07T03:08:09,42.805,6.029,4330,1995,192.239,58.796,13.293
2019-07-07T03:11:09,42.805,6.029,4330,1995,192.221,58.790,13.293
2019-07-07T03:14:09,42.805,6.029,4330,1995,192.250,58.799,13.293
2019-07-07T03:17:09,42.805,6.029,4330,1995,192.318,58.820,13.293
2019-07-07T03:20:09,42.805,6.029,4330,1995,192.249,58.798,13.292
2019-07-07T03:23:09,42.805,6.029,4330,1995,192.266,58.802,13.292
2019-07-07T03:26:09,42.805,6.029,4330,1995,192.347,58.827,13.292
2019-07-07T03:29:09,42.805,6.029,4330,1995,192.285,58.808,13.291
2019-07-07T03:32:09,42.805,6.029,4330,1995,192.339,58.824,13.291
2019-07-07T03:35:09,42.805,6.029,4330,1995,192.281,58.806,13.291
2019-07-07T03:38:09,42.805,6.029,4330,1995,192.329,58.821,13.291
2019-07-07T03:41:09,42.805,6.029,4330,1995,192.363,58.831,13.291
2019-07-07T03:47:09,42.805,6.029,4330,1995,192.437,58.851,13.289
2019-07-07T03:50:09,42.805,6.029,4330,1995,192.390,58.840,13.292
2019-07-07T03:53:09,42.805,6.029,4330,1995,192.282,58.808,13.292
2019-07-07T03:56:09,42.805,6.029,4330,1995,192.424,58.851,13.292
2019-07-07T03:59:09,42.805,6.029,4330,1995,192.395,58.843,13.293
2019-07-07T04:02:09,42.805,6.029,4330,1995,192.435,58.855,13.293
2019-07-07T04:05:09,42.805,6.029,4330,1995,192.374,58.837,13.293
2019-07-07T04:08:09,42.805,6.029,4330,1995,192.245,58.797,13.293
2019-07-07T04:11:09,42.805,6.029,4330,1995,192.163,58.772,13.293
2019-07-07T04:14:09,42.805,6.029,4330,1995,192.268,58.804,13.292
2019-07-07T04:17:09,42.805,6.029,4330,1995,192.348,58.828,13.292
2019-07-07T04:20:09,42.805,6.029,4330,1995,192.453,58.860,13.292
2019-07-07T04:23:09,42.805,6.029,4330,1995,192.490,58.871,13.292
2019-07-07T04:26:09,42.805,6.029,4330,1995,192.397,58.844,13.293
2019-07-07T04:29:09,42.805,6.029,4330,1995,192.329,58.823,13.292
2019-07-07T04:32:09,42.805,6.029,4330,1995,192.251,58.798,13.292
2019-07-07T04:35:09,42.805,6.029,4330,1995,192.296,58.811,13.291
2019-07-07T04:38:09,42.805,6.029,4330,1995,192.326,58.820,13.291
2019-07-07T04:41:09,42.805,6.029,4330,1995,192.417,58.848,13.291
2019-07-07T04:44:09,42.805,6.029,4330,1995,192.359,58.830,13.291
2019-07-07T04:47:09,42.805,6.029,4330,1995,192.364,58.831,13.291
2019-07-07T04:50:09,42.805,6.029,4330,1995,192.310,58.815,13.291
2019-07-07T04:53:09,42.805,6.029,4330,1995,192.307,58.814,13.291
2019-07-07T04:56:09,42.805,6.029,4330,1995,192.360,58.830,13.291
2019-07-07T04:59:09,42.805,6.029,4330,1995,192.386,58.837,13.290
2019-07-07T05:02:09,42.805,6.029,4330,1995,192.382,58.836,13.290
2019-07-07T05:05:09,42.805,6.029,4330,1995,192.409,58.845,13.291
2019-07-07T05:08:09,42.805,6.029,4330,1995,192.435,58.853,13.291
2019-07-07T05:11:09,42.805,6.029,4330,1995,192.390,58.839,13.290
2019-07-07T05:14:09,42.805,6.029,4330,1995,192.423,58.849,13.291
2019-07-07T05:17:09,42.805,6.029,4330,1995,192.394,58.841,13.291
2019-07-07T05:20:09,42.805,6.029,4330,1995,192.375,58.835,13.291
2019-07-07T05:23:09,42.805,6.029,4330,1995,192.404,58.845,13.292
2019-07-07T05:26:09,42.805,6.029,4330,1995,192.394,58.841,13.292
2019-07-07T05:29:09,42.805,6.029,4330,1995,192.354,58.829,13.291
2019-07-07T05:32:09,42.805,6.029,4330,1995,192.325,58.821,13.292
2019-07-07T05:35:09,42.805,6.029,4330,1995,192.280,58.807,13.292
2019-07-07T05:38:09,42.805,6.029,4330,1995,192.247,58.797,13.292
2019-07-07T05:41:09,42.805,6.029,4330,1995,192.229,58.791,13.292
2019-07-07T05:44:09,42.805,6.029,4330,1995,192.314,58.817,13.292
2019-07-07T05:47:09,42.805,6.029,4330,1995,192.298,58.812,13.292
2019-07-07T05:50:09,42.805,6.029,4330,1995,192.240,58.795,13.292
2019-07-07T05:53:09,42.805,6.029,4330,1995,192.226,58.792,13.293
2019-07-07T05:56:09,42.805,6.029,4330,1995,192.268,58.804,13.292
2019-07-07T05:59:09,42.805,6.029,4330,1995,192.260,58.802,13.293
2019-07-07T06:02:09,42.805,6.029,4330,1995,192.203,58.784,13.293
2019-07-07T06:05:09,42.805,6.029,4330,1995,192.192,58.782,13.293
2019-07-07T06:08:09,42.805,6.029,4330,1995,192.159,58.772,13.293
2019-07-07T06:11:09,42.805,6.029,4330,1995,192.112,58.757,13.293
2019-07-07T06:14:09,42.805,6.029,4330,1995,192.137,58.765,13.293
2019-07-07T06:20:09,42.805,6.029,4330,1995,192.062,58.737,13.289
2019-07-07T06:23:09,42.805,6.029,4330,1995,192.021,58.723,13.288
2019-07-07T06:26:09,42.805,6.029,4330,1995,192.091,58.747,13.291
2019-07-07T06:29:09,42.805,6.029,4330,1995,192.213,58.786,13.291
2019-07-07T06:32:09,42.805,6.029,4330,1995,192.251,58.798,13.291
2019-07-07T06:35:09,42.805,6.029,4330,1995,192.311,58.816,13.292
2019-07-07T06:38:09,42.805,6.029,4330,1995,192.314,58.818,13.292
2019-07-07T06:41:09,42.805,6.029,4330,1995,192.285,58.809,13.293
2019-07-07T06:44:09,42.805,6.029,4330,1995,192.234,58.793,13.292
2019-07-07T06:47:09,42.805,6.029,4330,1995,192.194,58.781,13.292
2019-07-07T06:50:09,42.805,6.029,4330,1995,192.172,58.775,13.292
2019-07-07T06:53:09,42.805,6.029,4330,1995,192.105,58.754,13.293
2019-07-07T06:56:09,42.805,6.029,4330,1995,192.185,58.779,13.293
2019-07-07T06:59:09,42.805,6.029,4330,1995,192.202,58.784,13.292
2019-07-07T07:02:09,42.805,6.029,4330,1995,192.232,58.793,13.292
2019-07-07T07:05:09,42.805,6.029,4330,1995,192.326,58.821,13.292
2019-07-07T07:08:09,42.805,6.029,4330,1995,192.293,58.812,13.292
2019-07-07T07:11:09,42.805,6.029,4330,1995,192.269,58.804,13.292
2019-07-07T07:14:09,42.805,6.029,4330,1995,192.240,58.796,13.293
2019-07-07T07:17:09,42.805,6.029,4330,1995,192.223,58.791,13.293
2019-07-07T07:20:09,42.805,6.029,4330,1995,192.212,58.787,13.293
2019-07-07T07:23:09,42.805,6.029,4330,1995,192.237,58.795,13.293
2019-07-07T07:26:09,42.805,6.029,4330,1995,192.228,58.793,13.293
2019-07-07T07:29:09,42.805,6.029,4330,1995,192.167,58.774,13.293
2019-07-07T07:32:09,42.805,6.029,4330,1995,192.227,58.792,13.293
2019-07-07T07:35:09,42.805,6.029,4330,1995,192.164,58.772,13.293
2019-07-07T07:38:09,42.805,6.029,4330,1995,192.198,58.783,13.293
2019-07-07T07:41:09,42.805,6.029,4330,1995,192.180,58.777,13.293
2019-07-07T07:44:09,42.805,6.029,4330,1995,192.183,58.778,13.293
2019-07-07T07:47:09,42.805,6.029,4330,1995,192.127,58.761,13.292
2019-07-07T07:50:09,42.805,6.029,4330,1995,192.094,58.751,13.292
2019-07-07T07:53:09,42.805,6.029,4330,1995,192.084,58.747,13.292
2019-07-07T07:56:09,42.805,6.029,4330,1995,192.168,58.773,13.292
2019-07-07T07:59:09,42.805,6.029,4330,1995,192.187,58.779,13.292
2019-07-07T08:02:09,42.805,6.029,4330,1995,192.168,58.773,13.292
2019-07-07T08:05:09,42.805,6.029,4330,1995,192.162,58.771,13.292
2019-07-07T08:08:09,42.805,6.029,4330,1995,192.093,58.749,13.291
2019-07-07T08:11:09,42.805,6.029,4330,1995,192.095,58.749,13.291
2019-07-07T08:14:09,42.805,6.029,4330,1995,192.169,58.772,13.291
2019-07-07T08:17:09,42.805,6.029,4330,1995,192.277,58.805,13.291
2019-07-07T08:20:09,42.805,6.029,4330,1995,192.263,58.801,13.291
2019-07-07T08:23:09,42.805,6.029,4330,1995,192.274,58.804,13.291
2019-07-07T08:26:09,42.805,6.029,4330,1995,192.236,58.792,13.291
2019-07-07T08:29:09,42.805,6.029,4330,1995,192.248,58.796,13.291
2019-07-07T08:32:09,42.805,6.029,4330,1995,192.260,58.800,13.291
2019-07-07T08:35:09,42.805,6.029,4330,1995,192.161,58.770,13.291
2019-07-07T08:38:09,42.805,6.029,4330,1995,192.145,58.765,13.292
2019-07-07T08:41:09,42.805,6.029,4330,1995,192.096,58.750,13.291
2019-07-07T08:44:09,42.805,6.029,4330,1995,192.091,58.749,13.292
2019-07-07T08:47:09,42.805,6.029,4330,1995,192.110,58.755,13.292
2019-07-07T08:50:09,42.805,6.029,4330,1995,192.053,58.737,13.292
2019-07-07T08:56:09,42.805,6.029,4330,1995,192.148,58.763,13.289
2019-07-07T08:59:09,42.805,6.029,4330,1995,191.977,58.712,13.290
2019-07-07T09:02:09,42.805,6.029,4330,1995,191.971,58.712,13.291
2019-07-07T09:05:09,42.805,6.029,4330,1995,192.123,58.758,13.291
2019-07-07T09:08:09,42.805,6.029,4330,1995,192.231,58.791,13.291
2019-07-07T09:11:09,42.805,6.029,4330,1995,192.271,58.803,13.291
2019-07-07T09:14:09,42.805,6.029,4330,1995,192.329,58.820,13.290
2019-07-07T09:17:09,42.805,6.029,4330,1995,192.380,58.835,13.290
2019-07-07T09:20:09,42.805,6.029,4330,1995,192.419,58.848,13.291
2019-07-07T09:23:09,42.805,6.029,4330,1995,192.305,58.813,13.291
2019-07-07T09:26:09,42.805,6.029,4330,1995,192.295,58.810,13.291
2019-07-07T09:29:09,42.805,6.029,4330,1995,192.227,58.789,13.290
2019-07-07T09:32:09,42.805,6.029,4330,1995,192.312,58.815,13.291
2019-07-07T09:35:09,42.805,6.029,4330,1995,192.355,58.828,13.291
2019-07-07T09:38:09,42.805,6.029,4330,1995,192.316,58.817,13.291
2019-07-07T09:41:09,42.805,6.029,4330,1995,192.349,58.827,13.291
2019-07-07T09:44:09,42.805,6.029,4330,1995,192.209,58.784,13.291
2019-07-07T09:47:09,42.805,6.029,4330,1995,192.252,58.797,13.291
2019-07-07T09:50:09,42.805,6.029,4330,1995,192.292,58.809,13.291
2019-07-07T09:53:09,42.805,6.029,4330,1995,192.367,58.833,13.291
2019-07-07T09:56:09,42.805,6.029,4330,1995,192.303,58.813,13.291
2019-07-07T09:59:09,42.805,6.029,4330,1995,192.334,58.823,13.291
2019-07-07T10:02:09,42.805,6.029,4330,1995,192.366,58.833,13.291
2019-07-07T10:05:09,42.805,6.029,4330,1995,192.363,58.832,13.292
2019-07-07T10:08:09,42.805,6.029,4330,1995,192.403,58.844,13.291
2019-07-07T10:11:09,42.805,6.029,4330,1995,192.408,58.845,13.291
2019-07-07T10:14:09,42.805,6.029,4330,1995,192.434,58.853,13.291
2019-07-07T10:17:09,42.805,6.029,4330,1995,192.306,58.814,13.291
2019-07-07T10:20:09,42.805,6.029,4330,1995,192.324,58.820,13.292
2019-07-07T10:23:09,42.805,6.029,4330,1995,192.311,58.816,13.292
2019-07-07T10:26:09,42.805,6.029,4330,1995,192.296,58.812,13.292
2019-07-07T10:29:09,42.805,6.029,4330,1995,192.402,58.844,13.292
2019-07-07T10:32:09,42.805,6.029,4330,1995,192.281,58.808,13.292
2019-07-07T10:35:09,42.805,6.029,4330,1995,192.331,58.823,13.292
2019-07-07T10:38:09,42.805,6.029,4330,1995,192.298,58.813,13.292
2019-07-07T10:41:09,42.805,6.029,4330,1995,192.313,58.817,13.292
2019-07-07T10:44:09,42.805,6.029,4330,1995,192.448,58.858,13.292
2019-07-07T10:47:09,42.805,6.029,4330,1995,192.436,58.854,13.291
2019-07-07T10:50:09,42.805,6.029,4330,1995,192.419,58.850,13.292
2019-07-07T10:53:09,42.805,6.029,4330,1995,192.235,58.793,13.292
2019-07-07T10:56:09,42.805,6.029,4330,1995,192.376,58.836,13.292
2019-07-07T10:59:09,42.805,6.029,4330,1995,192.388,58.840,13.292
2019-07-07T11:02:09,42.805,6.029,4330,1995,192.465,58.863,13.292
2019-07-07T11:05:09,42.805,6.029,4330,1995,192.501,58.874,13.291
2019-07-07T11:08:09,42.805,6.029,4330,1995,192.429,58.852,13.291
2019-07-07T11:11:09,42.805,6.029,4330,1995,192.382,58.837,13.291
2019-07-07T11:14:09,42.805,6.029,4330,1995,192.410,58.845,13.291
2019-07-07T11:17:09,42.805,6.029,4330,1995,192.368,58.832,13.290
2019-07-07T11:20:09,42.805,6.029,4330,1995,192.484,58.867,13.290
2019-07-07T11:23:09,42.805,6.029,4330,1995,192.404,58.843,13.290
2019-07-07T11:26:09,42.805,6.029,4330,1995,192.503,58.873,13.290
2019-07-07T11:32:09,42.805,6.029,4330,1995,192.392,58.840,13.291
2019-07-07T11:35:09,42.805,6.029,4330,1995,192.377,58.836,13.292
2019-07-07T11:38:09,42.805,6.029,4330,1995,192.365,58.833,13.292
2019-07-07T11:41:09,42.805,6.029,4330,1995,192.386,58.839,13.292
2019-07-07T11:44:09,42.805,6.029,4330,1995,192.399,58.844,13.292
2019-07-07T11:47:09,42.805,6.029,4330,1995,192.401,58.844,13.292
2019-07-07T11:50:09,42.805,6.029,4330,1995,192.452,58.860,13.292
2019-07-07T11:53:09,42.805,6.029,4330,1995,192.507,58.877,13.292
2019-07-07T11:56:09,42.805,6.029,4330,1995,192.518,58.881,13.293
2019-07-07T11:59:09,42.805,6.029,4330,1995,192.435,58.855,13.293
2019-07-07T12:02:09,42.805,6.029,4330,1995,192.356,58.832,13.293
2019-07-07T12:05:09,42.805,6.029,4330,1995,192.254,58.800,13.293
2019-07-07T12:08:09,42.805,6.029,4330,1995,192.266,58.803,13.292
2019-07-07T12:11:09,42.805,6.029,4330,1995,192.277,58.807,13.293
2019-07-07T12:14:09,42.805,6.029,4330,1995,192.286,58.809,13.292
2019-07-07T12:17:09,42.805,6.029,4330,1995,192.326,58.821,13.292
2019-07-07T12:20:09,42.805,6.029,4330,1995,192.367,58.834,13.292
2019-07-07T12:23:09,42.805,6.029,4330,1995,192.315,58.817,13.292
2019-07-07T12:26:09,42.805,6.029,4330,1995,192.395,58.841,13.291
2019-07-07T12:29:09,42.805,6.029,4330,1995,192.351,58.827,13.291
2019-07-07T12:32:09,42.805,6.029,4330,1995,192.322,58.819,13.291
2019-07-07T12:35:09,42.805,6.029,4330,1995,192.345,58.825,13.291
2019-07-07T12:38:09,42.805,6.029,4330,1995,192.312,58.815,13.291
2019-07-07T12:41:09,42.805,6.029,4330,1995,192.147,58.765,13.291
2019-07-07T12:44:09,42.805,6.029,4330,1995,192.169,58.771,13.290
2019-07-07T12:47:09,42.805,6.029,4330,1995,192.231,58.790,13.290
2019-07-07T12:50:09,42.805,6.029,4330,1995,192.264,58.800,13.290
2019-07-07T12:53:09,42.805,6.029,4330,1995,192.297,58.810,13.291
2019-07-07T12:56:09,42.805,6.029,4330,1995,192.318,58.817,13.290
2019-07-07T12:59:09,42.805,6.029,4330,1995,192.332,58.821,13.290
2019-07-07T13:02:09,42.805,6.029,4330,1995,192.407,58.844,13.291
2019-07-07T13:05:09,42.805,6.029,4330,1995,192.434,58.852,13.291
2019-07-07T13:08:09,42.805,6.029,4330,1995,192.376,58.835,13.290
2019-07-07T13:11:09,42.805,6.029,4330,1995,192.414,58.846,13.291
2019-07-07T13:14:09,42.805,6.029,4330,1995,192.439,58.854,13.291
2019-07-07T13:17:09,42.805,6.029,4330,1995,192.351,58.827,13.291
2019-07-07T13:20:09,42.805,6.029,4330,1995,192.364,58.832,13.291
2019-07-07T13:23:09,42.805,6.029,4330,1995,192.298,58.812,13.291
2019-07-07T13:26:09,42.805,6.029,4330,1995,192.225,58.790,13.292
2019-07-07T13:29:09,42.805,6.029,4330,1995,192.222,58.790,13.292
2019-07-07T13:32:09,42.805,6.029,4330,1995,192.183,58.778,13.292
2019-07-07T13:35:09,42.805,6.029,4330,1995,192.351,58.828,13.292
2019-07-07T13:38:09,42.805,6.029,4330,1995,192.421,58.850,13.292
2019-07-07T13:41:09,42.805,6.029,4330,1995,192.423,58.851,13.292
2019-07-07T13:44:09,42.805,6.029,4330,1995,192.431,58.854,13.292
2019-07-07T13:47:09,42.805,6.029,4330,1995,192.429,58.853,13.292
2019-07-07T13:50:09,42.805,6.029,4330,1995,192.443,58.858,13.293
2019-07-07T13:53:09,42.805,6.029,4330,1995,192.313,58.818,13.292
2019-07-07T13:56:09,42.805,6.029,4330,1995,192.334,58.824,13.292
2019-07-07T13:59:09,42.805,6.029,4330,1995,192.384,58.840,13.293
2019-07-07T14:05:09,42.805,6.029,4330,1995,192.372,58.831,13.289
2019-07-07T14:08:09,42.805,6.029,4330,1995,192.454,58.855,13.288
2019-07-07T14:11:09,42.805,6.029,4330,1995,192.475,58.864,13.290
2019-07-07T14:14:09,42.805,6.029,4330,1995,192.481,58.867,13.291
2019-07-07T14:17:09,42.805,6.029,4330,1995,192.495,58.872,13.291
2019-07-07T14:20:09,42.805,6.029,4330,1995,192.463,58.863,13.292
2019-07-07T14:23:09,42.805,6.029,4330,1995,192.450,58.859,13.292
2019-07-07T14:26:09,42.805,6.029,4330,1995,192.414,58.849,13.293
2019-07-07T14:29:09,42.805,6.029,4330,1995,192.367,58.835,13.293
2019-07-07T14:32:09,42.805,6.029,4330,1995,192.261,58.803,13.293
2019-07-07T14:35:09,42.805,6.029,4330,1995,192.220,58.791,13.294
2019-07-07T14:38:09,42.805,6.029,4330,1995,192.232,58.795,13.294
2019-07-07T14:41:09,42.805,6.029,4330,1995,192.183,58.780,13.294
2019-07-07T14:44:09,42.805,6.029,4330,1995,192.173,58.777,13.294
2019-07-07T14:47:08,42.805,6.029,4330,1995,192.199,58.786,13.295
2019-07-07T14:50:08,42.805,6.029,4330,1995,192.066,58.746,13.295
2019-07-07T14:53:08,42.805,6.029,4330,1995,191.948,58.709,13.295
2019-07-07T14:56:08,42.805,6.029,4330,1995,192.009,58.727,13.294
2019-07-07T14:59:08,42.805,6.029,4330,1995,192.105,58.757,13.294
2019-07-07T15:02:08,42.805,6.029,4330,1995,192.067,58.746,13.295
2019-07-07T15:05:08,42.805,6.029,4330,1995,192.097,58.756,13.296
2019-07-07T15:08:08,42.805,6.029,4330,1995,192.043,58.741,13.297
2019-07-07T15:11:08,42.805,6.029,4330,1995,191.923,58.702,13.295
2019-07-07T15:14:08,42.805,6.029,4330,1995,191.880,58.688,13.294
2019-07-07T15:17:08,42.805,6.029,4330,1995,191.964,58.713,13.294
2019-07-07T15:20:08,42.805,6.029,4330,1995,192.014,58.728,13.294
2019-07-07T15:23:08,42.805,6.029,4330,1995,192.061,58.742,13.294
2019-07-07T15:26:08,42.805,6.029,4330,1995,192.125,58.762,13.294
2019-07-07T15:29:08,42.805,6.029,4330,1995,192.132,58.764,13.293
2019-07-07T15:32:08,42.805,6.029,4330,1995,191.992,58.721,13.294
2019-07-07T15:35:08,42.805,6.029,4330,1995,191.895,58.691,13.294
2019-07-07T15:38:08,42.805,6.029,4330,1995,191.880,58.686,13.293
2019-07-07T15:41:08,42.805,6.029,4330,1995,191.852,58.678,13.293
2019-07-07T15:44:08,42.805,6.029,4330,1995,191.735,58.642,13.293
2019-07-07T15:47:08,42.805,6.029,4330,1995,191.833,58.672,13.293
2019-07-07T15:50:08,42.805,6.029,4330,1995,191.819,58.667,13.293
2019-07-07T15:53:08,42.805,6.029,4330,1995,191.773,58.653,13.293
2019-07-07T15:56:08,42.805,6.029,4330,1995,191.930,58.700,13.292
2019-07-07T15:59:08,42.805,6.029,4330,1995,191.952,58.707,13.292
2019-07-07T16:02:08,42.805,6.029,4330,1995,192.019,58.727,13.292
2019-07-07T16:05:08,42.805,6.029,4330,1995,192.002,58.721,13.291
2019-07-07T16:08:08,42.805,6.029,4330,1995,192.067,58.740,13.291
2019-07-07T16:11:08,42.805,6.029,4330,1995,192.018,58.725,13.291
2019-07-07T16:14:08,42.805,6.029,4330,1995,192.143,58.763,13.291
2019-07-07T16:17:08,42.805,6.029,4330,1995,192.292,58.809,13.291
2019-07-07T16:20:08,42.805,6.029,4330,1995,192.363,58.831,13.290
2019-07-07T16:23:08,42.805,6.029,4330,1995,192.398,58.841,13.291
2019-07-07T16:26:08,42.805,6.029,4330,1995,192.307,58.814,13.291
2019-07-07T16:29:08,42.805,6.029,4330,1995,192.356,58.829,13.291
2019-07-07T16:32:08,42.805,6.029,4330,1995,192.372,58.834,13.291
2019-07-07T16:35:08,42.805,6.029,4330,1995,192.413,58.847,13.291
2019-07-07T16:41:08,42.805,6.029,4330,1995,192.537,58.883,13.290
2019-07-07T16:44:08,42.805,6.029,4330,1995,192.507,58.874,13.290
2019-07-07T16:47:08,42.805,6.029,4330,1995,192.529,58.881,13.290
2019-07-07T16:50:08,42.805,6.029,4330,1995,192.572,58.894,13.290
2019-07-07T16:53:08,42.805,6.029,4330,1995,192.627,58.911,13.291
2019-07-07T16:56:08,42.805,6.029,4330,1995,192.630,58.912,13.290
2019-07-07T16:59:08,42.805,6.029,4330,1995,192.653,58.919,13.290
2019-07-07T17:02:08,42.805,6.029,4330,1995,192.698,58.932,13.290
2019-07-07T17:05:08,42.805,6.029,4330,1995,192.659,58.920,13.290
2019-07-07T17:08:08,42.805,6.029,4330,1995,192.702,58.933,13.290
2019-07-07T17:11:08,42.805,6.029,4330,1995,192.699,58.932,13.290
2019-07-07T17:14:08,42.805,6.029,4330,1995,192.709,58.935,13.290
2019-07-07T17:17:08,42.805,6.029,4330,1995,192.658,58.920,13.290
2019-07-07T17:20:08,42.805,6.029,4330,1995,192.646,58.917,13.290
2019-07-07T17:23:08,42.805,6.029,4330,1995,192.715,58.937,13.290
2019-07-07T17:26:08,42.805,6.029,4330,1995,192.729,58.942,13.290
2019-07-07T17:29:08,42.805,6.029,4330,1995,192.691,58.930,13.290
2019-07-07T17:32:08,42.805,6.029,4330,1995,192.711,58.936,13.290
2019-07-07T17:35:08,42.805,6.029,4330,1995,192.666,58.923,13.290
2019-07-07T17:38:08,42.805,6.029,4330,1995,192.588,58.899,13.290
2019-07-07T17:41:08,42.805,6.029,4330,1995,192.612,58.907,13.291
2019-07-07T17:44:08,42.805,6.029,4330,1995,192.638,58.915,13.290
2019-07-07T17:47:08,42.805,6.029,4330,1995,192.620,58.909,13.290
2019-07-07T17:50:08,42.805,6.029,4330,1995,192.592,58.901,13.291
2019-07-07T17:53:08,42.805,6.029,4330,1995,192.583,58.898,13.291
2019-07-07T17:56:08,42.805,6.029,4330,1995,192.572,58.895,13.291
2019-07-07T17:59:08,42.805,6.029,4330,1995,192.502,58.874,13.291
2019-07-07T18:02:08,42.805,6.029,4330,1995,192.580,58.898,13.291
2019-07-07T18:05:08,42.805,6.029,4330,1995,192.490,58.871,13.291
2019-07-07T18:08:08,42.805,6.029,4330,1995,192.537,58.885,13.292
2019-07-07T18:11:08,42.805,6.029,4330,1995,192.606,58.906,13.292
2019-07-07T18:14:08,42.805,6.029,4330,1995,192.589,58.901,13.292
2019-07-07T18:17:08,42.805,6.029,4330,1995,192.589,58.901,13.292
2019-07-07T18:20:08,42.805,6.029,4330,1995,192.586,58.900,13.292
2019-07-07T18:23:08,42.805,6.029,4330,1995,192.615,58.909,13.292
2019-07-07T18:26:08,42.805,6.029,4330,1995,192.680,58.929,13.292
2019-07-07T18:29:08,42.805,6.029,4330,1995,192.666,58.925,13.292